Terminal Aerodrome Forecast
Issued by NWS

Home | Current Version | Previous Version | Graphics & Text | Print | Product List | Glossary On
Versions: 1 2 3 4 5 6 7 8 9 10 11 12 13 14 15 16 17 18 19
315
FTUS43 KMPX 152327
TAFRWF
TAF
KRWF 152327Z 1600/1624 16005KT P6SM OVC070
     FM161600 06004KT P6SM OVC100=

USA.gov is the U.S. government's official web portal to all federal, state and local government web resources and services.